When you browse on this site, cookies collect data to enhance your experience and personalize the content and advertising you see.
Visit our Privacy Policy to learn more. By continuing to use the site, you agree to this use of cookies and data.
  • In United Kingdom
  • List of Countries
  • For 7 days
  • Water Temperature
  • Satellite Maps
  • Weather Map
  • Weather Widgets
  • user-avatar
    Login

    Hourly Weather Liege

    Today, 27 May, Monday

    Time Temperature Precipitation Wind Pressure Humidity
    00:00 +13°C° 0 mm 4 mps 749 mmHg 93%
    01:00 +13°C° 0.3 mm 4 mps 748 mmHg 94%
    02:00 +13°C° 0.3 mm 4 mps 748 mmHg 95%
    03:00 +13°C° 0.3 mm 4 mps 748 mmHg 96%
    04:00 +13°C° 0.7 mm 3 mps 748 mmHg 96%
    05:00 +13°C° 0.7 mm 3 mps 748 mmHg 97%
    06:00 +14°C° 0.7 mm 2 mps 748 mmHg 97%
    07:00 +15°C° 0.2 mm 2 mps 748 mmHg 94%
    08:00 +16°C° 0.2 mm 2 mps 748 mmHg 90%
    09:00 +17°C° 0.2 mm 2 mps 749 mmHg 86%
    10:00 +17°C° 0.3 mm 3 mps 748 mmHg 82%
    11:00 +18°C° 0.3 mm 3 mps 748 mmHg 77%
    12:00 +19°C° 0.3 mm 4 mps 748 mmHg 72%
    13:00 +19°C° 0.1 mm 4 mps 748 mmHg 69%
    14:00 +19°C° 0.1 mm 4 mps 747 mmHg 67%
    15:00 +19°C° 0.1 mm 4 mps 747 mmHg 64%
    16:00 +18°C° 0 mm 4 mps 747 mmHg 67%
    17:00 +17°C° 0 mm 3 mps 747 mmHg 70%
    18:00 +17°C° 0 mm 3 mps 747 mmHg 74%
    19:00 +15°C° 0 mm 2 mps 747 mmHg 77%
    20:00 +14°C° 0 mm 2 mps 747 mmHg 81%
    21:00 +13°C° 0 mm 1 mps 747 mmHg 85%
    22:00 +12°C° 0 mm 2 mps 747 mmHg 88%
    23:00 +10°C° 0 mm 2 mps 747 mmHg 91%

    Tomorrow, 28 May, Tuesday

    Time Temperature Precipitation Wind Pressure Humidity
    00:00 +10°C° 0 mm 3 mps 747 mmHg 94%
    01:00 +9°C° 0 mm 3 mps 747 mmHg 95%
    02:00 +9°C° 0 mm 3 mps 746 mmHg 95%
    03:00 +9°C° 0 mm 3 mps 746 mmHg 96%
    04:00 +9°C° 0.4 mm 3 mps 746 mmHg 95%
    05:00 +10°C° 0.4 mm 3 mps 746 mmHg 95%
    06:00 +10°C° 0.4 mm 3 mps 746 mmHg 94%
    07:00 +11°C° 0.8 mm 3 mps 746 mmHg 90%
    08:00 +12°C° 0.8 mm 4 mps 747 mmHg 85%
    09:00 +13°C° 0.8 mm 4 mps 747 mmHg 81%
    10:00 +14°C° 0.4 mm 4 mps 747 mmHg 78%
    11:00 +15°C° 0.4 mm 4 mps 747 mmHg 75%
    12:00 +17°C° 0.4 mm 4 mps 747 mmHg 73%
    13:00 +17°C° 1 mm 3 mps 747 mmHg 74%
    14:00 +17°C° 1 mm 3 mps 748 mmHg 76%
    15:00 +17°C° 1 mm 3 mps 748 mmHg 77%
    16:00 +16°C° 0.6 mm 3 mps 748 mmHg 80%
    17:00 +14°C° 0.6 mm 3 mps 749 mmHg 84%
    18:00 +15°C° 0.6 mm 2 mps 749 mmHg 87%
    19:00 +13°C° 0.2 mm 2 mps 750 mmHg 89%
    20:00 +12°C° 0.2 mm 2 mps 751 mmHg 90%
    21:00 +10°C° 0.2 mm 2 mps 752 mmHg 92%
    22:00 +9°C° 0 mm 2 mps 752 mmHg 92%
    23:00 +8°C° 0 mm 2 mps 752 mmHg 92%

    Day after tomorrow, 29 May, Wednesday

    Time Temperature Precipitation Wind Pressure Humidity
    00:00 +9°C° 0 mm 1 mps 753 mmHg 92%
    01:00 +8°C° 0 mm 1 mps 753 mmHg 93%
    02:00 +8°C° 0 mm 1 mps 753 mmHg 93%
    03:00 +7°C° 0 mm 1 mps 753 mmHg 93%
    04:00 +9°C° 0 mm 1 mps 753 mmHg 91%
    05:00 +10°C° 0 mm 1 mps 754 mmHg 89%
    06:00 +11°C° 0 mm 1 mps 754 mmHg 87%
    07:00 +13°C° 0 mm 1 mps 754 mmHg 79%
    08:00 +15°C° 0 mm 2 mps 754 mmHg 70%
    09:00 +17°C° 0 mm 2 mps 754 mmHg 62%
    10:00 +17°C° 0.2 mm 2 mps 753 mmHg 64%
    11:00 +18°C° 0.2 mm 3 mps 753 mmHg 66%
    12:00 +18°C° 0.2 mm 4 mps 753 mmHg 67%
    13:00 +18°C° 0.3 mm 4 mps 753 mmHg 67%
    14:00 +17°C° 0.3 mm 5 mps 753 mmHg 67%
    15:00 +19°C° 0.3 mm 5 mps 752 mmHg 66%
    16:00 +16°C° 0.1 mm 5 mps 752 mmHg 73%
    17:00 +15°C° 0.1 mm 5 mps 752 mmHg 79%
    18:00 +13°C° 0.1 mm 5 mps 752 mmHg 85%
    19:00 +13°C° 0.2 mm 5 mps 752 mmHg 88%
    20:00 +12°C° 0.2 mm 5 mps 752 mmHg 90%
    21:00 +12°C° 0.2 mm 5 mps 752 mmHg 92%
    22:00 +12°C° 0.4 mm 5 mps 752 mmHg 93%
    23:00 +13°C° 0.4 mm 5 mps 752 mmHg 94%

    30 May, Thursday

    Time Temperature Precipitation Wind Pressure Humidity
    00:00 +13°C° 0.4 mm 5 mps 752 mmHg 96%
    01:00 +13°C° 0.1 mm 5 mps 752 mmHg 96%
    02:00 +13°C° 0.1 mm 5 mps 752 mmHg 96%
    03:00 +13°C° 0.1 mm 5 mps 752 mmHg 96%
    04:00 +13°C° 0.1 mm 4 mps 753 mmHg 96%
    05:00 +13°C° 0.1 mm 4 mps 753 mmHg 96%
    06:00 +13°C° 0.1 mm 4 mps 753 mmHg 96%
    07:00 +14°C° 0.1 mm 4 mps 754 mmHg 96%
    08:00 +14°C° 0.1 mm 4 mps 754 mmHg 95%
    09:00 +14°C° 0.1 mm 4 mps 754 mmHg 95%
    10:00 +15°C° 0.1 mm 4 mps 754 mmHg 93%
    11:00 +16°C° 0.1 mm 5 mps 755 mmHg 91%
    12:00 +16°C° 0.1 mm 5 mps 755 mmHg 90%
    13:00 +17°C° 0.3 mm 4 mps 755 mmHg 91%
    14:00 +17°C° 0.3 mm 4 mps 755 mmHg 93%
    15:00 +15°C° 0.3 mm 4 mps 755 mmHg 94%
    16:00 +15°C° 0.2 mm 4 mps 755 mmHg 94%
    17:00 +15°C° 0.2 mm 4 mps 755 mmHg 94%
    18:00 +15°C° 0.2 mm 4 mps 755 mmHg 94%
    19:00 +15°C° 0.1 mm 5 mps 756 mmHg 94%
    20:00 +15°C° 0.1 mm 5 mps 756 mmHg 94%
    21:00 +14°C° 0.1 mm 5 mps 756 mmHg 95%
    22:00 +14°C° 0 mm 5 mps 756 mmHg 95%
    23:00 +13°C° 0 mm 5 mps 756 mmHg 94%

    31 May, Friday

    Time Temperature Precipitation Wind Pressure Humidity
    00:00 +13°C° 0 mm 5 mps 755 mmHg 94%
    01:00 +13°C° 0.2 mm 5 mps 755 mmHg 95%
    02:00 +13°C° 0.2 mm 5 mps 755 mmHg 96%
    03:00 +13°C° 0.2 mm 5 mps 755 mmHg 96%
    04:00 +13°C° 0.2 mm 4 mps 755 mmHg 96%
    05:00 +13°C° 0.2 mm 4 mps 756 mmHg 96%
    06:00 +14°C° 0.2 mm 4 mps 756 mmHg 96%
    07:00 +14°C° 0.3 mm 4 mps 757 mmHg 93%
    08:00 +15°C° 0.3 mm 4 mps 757 mmHg 89%
    09:00 +16°C° 0.3 mm 5 mps 757 mmHg 86%
    10:00 +17°C° 0.2 mm 4 mps 758 mmHg 84%
    11:00 +17°C° 0.2 mm 4 mps 758 mmHg 81%
    12:00 +17°C° 0.2 mm 4 mps 759 mmHg 79%
    13:00 +17°C° 0.1 mm 4 mps 759 mmHg 78%
    14:00 +15°C° 0.1 mm 4 mps 759 mmHg 76%
    15:00 +15°C° 0.1 mm 4 mps 760 mmHg 74%
    16:00 +15°C° 0 mm 4 mps 760 mmHg 75%
    17:00 +14°C° 0 mm 3 mps 760 mmHg 76%
    18:00 +14°C° 0 mm 3 mps 760 mmHg 77%
    19:00 +13°C° 0 mm 2 mps 761 mmHg 81%
    20:00 +12°C° 0 mm 2 mps 761 mmHg 85%
    21:00 +10°C° 0 mm 1 mps 762 mmHg 90%
    22:00 +9°C° 0 mm 1 mps 762 mmHg 90%
    23:00 +9°C° 0 mm 1 mps 762 mmHg 90%

    1 June, Saturday

    Time Temperature Precipitation Wind Pressure Humidity
    00:00 +8°C° 0 mm 1 mps 762 mmHg 91%
    01:00 +8°C° 0 mm 1 mps 762 mmHg 91%
    02:00 +8°C° 0 mm 1 mps 762 mmHg 91%
    03:00 +7°C° 0 mm 1 mps 762 mmHg 91%
    04:00 +9°C° 0 mm 1 mps 762 mmHg 86%
    05:00 +10°C° 0 mm 1 mps 762 mmHg 82%
    06:00 +12°C° 0 mm 1 mps 762 mmHg 77%
    07:00 +14°C° 0 mm 1 mps 762 mmHg 69%
    08:00 +15°C° 0 mm 0 mps 762 mmHg 62%
    09:00 +17°C° 0 mm 0 mps 762 mmHg 54%
    10:00 +18°C° 0 mm 0 mps 762 mmHg 51%
    11:00 +19°C° 0 mm 0 mps 762 mmHg 49%
    12:00 +20°C° 0 mm 0 mps 762 mmHg 46%
    13:00 +22°C° 0 mm 1 mps 761 mmHg 47%
    14:00 +22°C° 0 mm 1 mps 761 mmHg 47%
    15:00 +22°C° 0 mm 1 mps 761 mmHg 48%
    16:00 +22°C° 0 mm 1 mps 761 mmHg 53%
    17:00 +21°C° 0 mm 1 mps 760 mmHg 59%
    18:00 +20°C° 0 mm 1 mps 760 mmHg 64%
    19:00 +18°C° 0 mm 1 mps 761 mmHg 65%
    20:00 +16°C° 0 mm 1 mps 761 mmHg 66%
    21:00 +14°C° 0 mm 1 mps 761 mmHg 67%
    22:00 +13°C° 0 mm 1 mps 761 mmHg 68%
    23:00 +13°C° 0 mm 1 mps 761 mmHg 69%
    Show more